Poplar Bluff, MO

12:29 PM CST on February 14, 2016 (GMT -0600)
Poplar Bluff Municipal

Weather History for KPOF - September, 2013

Change the Weather History Date:

Tuesday, September 24, 2013

  Actual Average Record
Temperature  
Mean Temperature 69 °F -  
Max Temperature 81 °F 76 °F 94 °F (1935)
Min Temperature 57 °F 52 °F 36 °F (1928)
Cooling Degree Days 4    
Growing Degree Days 19 (Base 50)    
Moisture  
Dew Point 64 °F    
Average Humidity 78    
Maximum Humidity 87    
Minimum Humidity 62    
Precipitation  
Precipitation 0.00 in - - ()
Sea Level Pressure  
Sea Level Pressure 29.84 in    
Wind  
Wind Speed 4 mph (East)    
Max Wind Speed 9 mph    
Max Gust Speed -    
Visibility 10 miles    
Events      
Averages and records for this station are not official NWS values.
T = Trace of Precipitation, MM = Missing Value Source: NWS Daily Summary

Daily Weather History Graph

Daily Weather History Graph

Search for Another Location

Airport or City:

Trip Planner

Search our weather history database for the weather conditions in past years. The results will help you decide how hot, cold, wet, or windy it might be!

Date:

Astronomy

Sep. 24, 2013 Rise Set
Actual Time 6:51 AM CDT 6:54 PM CDT
Civil Twilight 6:25 AM CDT 7:20 PM CDT
Nautical Twilight 5:55 AM CDT 7:50 PM CDT
Astronomical Twilight 5:24 AM CDT 8:21 PM CDT
Moon 10:20 PM CDT (9/24) 11:57 AM CDT (9/24)
Length of Visible Light 12h 55m
Length of Day
12h 03m
Waning Gibbous, 73% of the Moon is Illuminated
Sep 24
Waning Gibbous
Sep 26
Last Quarter
Oct 4
New
Oct 11
First Quarter
Oct 18
Full

Hourly Weather History & Observations

Time (CDT) Temp. Heat Index Dew Point Humidity Pressure Visibility Wind Dir Wind Speed Gust Speed Precip Events Conditions
12:53 AM 60.1 °F - 55.0 °F 83% 29.91 in 10.0 mi NNE 3.5 mph - N/A   Clear
1:53 AM 57.9 °F - 54.0 °F 87% 29.92 in 10.0 mi Calm Calm - N/A   Clear
2:53 AM 59.0 °F - 55.0 °F 87% 29.91 in 10.0 mi Calm Calm - N/A   Partly Cloudy
3:53 AM 59.0 °F - 55.0 °F 87% 29.91 in 10.0 mi Calm Calm - N/A   Mostly Cloudy
4:53 AM 60.1 °F - 55.9 °F 86% 29.90 in 10.0 mi NE 3.5 mph - N/A   Mostly Cloudy
5:53 AM 59.0 °F - 55.0 °F 87% 29.91 in 9.0 mi NE 3.5 mph - N/A   Partly Cloudy
6:53 AM 59.0 °F - 55.0 °F 87% 29.90 in 7.0 mi NNE 3.5 mph - N/A   Clear
7:53 AM 62.1 °F - 57.0 °F 84% 29.88 in 8.0 mi NE 4.6 mph - N/A   Clear
8:53 AM 64.0 °F - 60.1 °F 87% 29.88 in 9.0 mi ENE 3.5 mph - N/A   Mostly Cloudy
9:53 AM 71.1 °F - 63.0 °F 75% 29.89 in 10.0 mi East 3.5 mph - N/A   Scattered Clouds
10:53 AM 73.0 °F - 64.0 °F 73% 29.89 in 10.0 mi South 3.5 mph - N/A   Mostly Cloudy
11:53 AM 75.9 °F - 66.0 °F 71% 29.88 in 10.0 mi SE 5.8 mph - N/A   Mostly Cloudy
12:06 PM 77.0 °F - 66.2 °F 69% 29.89 in 10.0 mi SE 4.6 mph - N/A   Overcast
12:53 PM 79.0 °F - 66.9 °F 66% 29.86 in 10.0 mi SSE 5.8 mph - N/A   Mostly Cloudy
1:53 PM 81.0 °F 83.3 °F 66.9 °F 62% 29.83 in 10.0 mi South 8.1 mph - N/A   Partly Cloudy
2:43 PM 78.8 °F - 66.2 °F 65% 29.83 in 10.0 mi East 9.2 mph - N/A   Mostly Cloudy
2:53 PM 79.0 °F - 66.9 °F 66% 29.82 in 10.0 mi SE 9.2 mph - N/A   Mostly Cloudy
3:02 PM 80.6 °F 83.2 °F 68.0 °F 65% 29.82 in 10.0 mi East 9.2 mph - N/A   Mostly Cloudy
3:53 PM 80.1 °F 82.7 °F 68.0 °F 67% 29.80 in 10.0 mi ESE 6.9 mph - N/A   Mostly Cloudy
4:00 PM 80.6 °F 83.2 °F 68.0 °F 65% 29.81 in 10.0 mi East 6.9 mph - N/A   Mostly Cloudy
4:30 PM 78.8 °F - 68.0 °F 69% 29.80 in 10.0 mi ESE 8.1 mph - N/A   Mostly Cloudy
4:53 PM 78.1 °F - 68.0 °F 71% 29.79 in 10.0 mi ESE 6.9 mph - N/A   Partly Cloudy
5:53 PM 75.9 °F - 68.0 °F 76% 29.80 in 10.0 mi ESE 5.8 mph - N/A   Mostly Cloudy
6:19 PM 75.2 °F - 68.0 °F 78% 29.81 in 10.0 mi East 4.6 mph - N/A   Mostly Cloudy
6:31 PM 75.2 °F - 69.8 °F 83% 29.81 in 10.0 mi East 5.8 mph - N/A   Overcast
6:53 PM 73.9 °F - 68.0 °F 82% 29.80 in 10.0 mi East 6.9 mph - N/A   Overcast
7:09 PM 73.4 °F - 68.0 °F 83% 29.81 in 10.0 mi East 5.8 mph - N/A   Overcast
7:43 PM 73.4 °F - 68.0 °F 83% 29.81 in 10.0 mi East 6.9 mph - N/A   Overcast
7:53 PM 73.0 °F - 68.0 °F 84% 29.81 in 10.0 mi East 8.1 mph - N/A   Overcast
8:53 PM 73.0 °F - 68.0 °F 84% 29.81 in 10.0 mi ESE 5.8 mph - N/A   Overcast
9:53 PM 72.0 °F - 68.0 °F 87% 29.79 in 7.0 mi ESE 4.6 mph - N/A   Overcast
10:53 PM 72.0 °F - 68.0 °F 87% 29.78 in 9.0 mi ESE 3.5 mph - N/A   Overcast
11:53 PM 72.0 °F - 68.0 °F 87% 29.78 in 9.0 mi Calm Calm - N/A   Overcast